Change the Weather History Date:

Friday, January 16, 2015

  Actual Average Record
Temperature  
Mean Temperature 65 °F 65 °F  
Max Temperature 72 °F 74 °F 84 °F (1954)
Min Temperature 57 °F 57 °F 34 °F (1921)
Degree Days  
Heating Degree Days 0 3  
Month to date heating degree days 1 48  
Since 1 July heating degree days 43 119  
Cooling Degree Days 0 3  
Month to date cooling degree days 133 55  
Year to date cooling degree days 133 55  
Growing Degree Days 16 (Base 50)    
Moisture  
Dew Point 56 °F    
Average Humidity 70    
Maximum Humidity 87    
Minimum Humidity 53    
Precipitation  
Precipitation 0.01 in 0.10 in 1.86 in (1991)
Month to date precipitation 0.98 1.72  
Year to date precipitation 0.98 1.72  
Snow  
Snow 0.00 in - - ()
Month to date snowfall 0.0  
Since 1 July snowfall 0.0  
Snow Depth 0.00 in    
Sea Level Pressure  
Sea Level Pressure 30.06 in    
Wind  
Wind Speed 11 mph (NNW)    
Max Wind Speed 21 mph    
Max Gust Speed 26 mph    
Visibility 10 miles    
Events Rain    
T = Trace of Precipitation, MM = Missing Value Source: NWS Daily Summary

Daily Weather History Graph

Daily Weather History Graph

Search for Another Location

Airport or City:

Trip Planner

Search our weather history database for the weather conditions in past years. The results will help you decide how hot, cold, wet, or windy it might be!

Date:

Astronomy

Jan. 16, 2015 Rise Set
Actual Time 7:10 AM EST 5:50 PM EST
Civil Twilight 6:45 AM EST 6:15 PM EST
Nautical Twilight 6:17 AM EST 6:43 PM EST
Astronomical Twilight 5:49 AM EST 7:11 PM EST
Moon 3:08 AM EST (1/16) 2:20 PM EST (1/16)
Length of Visible Light 11h 29m
Length of Day
10h 39m
Waning Crescent, 19% of the Moon is Illuminated
Jan 16
Waning Crescent
Jan 20
New
Jan 26
First Quarter
Feb 3
Full
Feb 11
Last Quarter

Hourly Weather History & Observations

Time (EST) Temp. Dew Point Humidity Pressure Visibility Wind Dir Wind Speed Gust Speed Precip Events Conditions
12:53 AM 64.9 °F 60.1 °F 84% 30.02 in 10.0 mi NNW 9.2 mph - N/A   Overcast
1:53 AM 64.9 °F 60.1 °F 84% 30.01 in 10.0 mi NNW 10.4 mph - N/A   Mostly Cloudy
2:53 AM 64.0 °F 59.0 °F 84% 30.01 in 10.0 mi North 9.2 mph - 0.00 in Rain Light Rain
3:53 AM 63.0 °F 57.9 °F 84% 30.01 in 10.0 mi NNW 13.8 mph - 0.00 in   Overcast
4:53 AM 63.0 °F 55.0 °F 75% 30.01 in 10.0 mi NNW 10.4 mph - N/A   Overcast
5:53 AM 64.0 °F 55.0 °F 73% 30.02 in 10.0 mi NNW 10.4 mph - N/A   Overcast
6:53 AM 64.0 °F 55.9 °F 75% 30.03 in 10.0 mi NNW 11.5 mph - N/A   Overcast
7:53 AM 62.1 °F 57.9 °F 86% 30.06 in 3.0 mi NNW 11.5 mph - 0.01 in Rain Rain
8:48 AM 62.6 °F 60.8 °F 94% 30.06 in 10.0 mi NNW 6.9 mph - 0.00 in   Overcast
8:53 AM 62.1 °F 60.1 °F 93% 30.05 in 10.0 mi NNW 5.8 mph - 0.00 in   Overcast
9:10 AM 63.0 °F 60.1 °F 90% 30.05 in 10.0 mi NW 4.6 mph - N/A   Overcast
9:53 AM 64.0 °F 60.1 °F 87% 30.07 in 10.0 mi NNW 9.2 mph - N/A   Overcast
10:16 AM 64.9 °F 60.1 °F 84% 30.08 in 10.0 mi North 10.4 mph - N/A   Overcast
10:53 AM 64.9 °F 59.0 °F 81% 30.09 in 10.0 mi NNW 18.4 mph - N/A   Overcast
11:53 AM 62.1 °F 57.0 °F 84% 30.09 in 10.0 mi NNW 9.2 mph - N/A   Mostly Cloudy
12:16 PM 66.0 °F 57.0 °F 73% 30.08 in 10.0 mi NW 12.7 mph - N/A   Mostly Cloudy
12:53 PM 69.1 °F 57.0 °F 65% 30.06 in 10.0 mi NNW 12.7 mph - N/A   Mostly Cloudy
1:53 PM 72.0 °F 55.0 °F 55% 30.04 in 10.0 mi North 16.1 mph 23.0 mph N/A   Mostly Cloudy
2:53 PM 71.1 °F 54.0 °F 55% 30.04 in 10.0 mi North 18.4 mph - N/A   Mostly Cloudy
3:53 PM 68.0 °F 53.1 °F 59% 30.06 in 10.0 mi North 13.8 mph - N/A   Scattered Clouds
4:53 PM 66.0 °F 51.1 °F 59% 30.06 in 10.0 mi North 15.0 mph - N/A   Scattered Clouds
5:53 PM 64.0 °F 52.0 °F 65% 30.07 in 10.0 mi North 9.2 mph - N/A   Scattered Clouds
6:53 PM 63.0 °F 53.1 °F 70% 30.09 in 10.0 mi North 9.2 mph - N/A   Partly Cloudy
7:53 PM 62.1 °F 54.0 °F 75% 30.10 in 10.0 mi North 10.4 mph - N/A   Partly Cloudy
8:53 PM 60.1 °F 53.1 °F 78% 30.11 in 10.0 mi NNW 6.9 mph - N/A   Clear
9:53 PM 60.1 °F 55.0 °F 83% 30.12 in 10.0 mi NNW 6.9 mph - N/A   Clear
10:53 PM 59.0 °F 55.0 °F 87% 30.12 in 10.0 mi NNW 8.1 mph - N/A   Clear
11:53 PM 57.0 °F 54.0 °F 89% 30.12 in 10.0 mi NNW 9.2 mph - N/A   Partly Cloudy